Weather reports worldwide

Advertisment
Treviso/Istrana, Italy (16098): temperature & dewpoint: 31.05.2020 19:00:00 - 06.06.2020 19:00:00 (CEST)Treviso/Istrana, Italy (16098): wind speed: 31.05.2020 19:00:00 - 06.06.2020 19:00:00 (CEST)Treviso/Istrana, Italy (16098): wind direction: 31.05.2020 19:00:00 - 06.06.2020 19:00:00 (CEST)Treviso/Istrana, Italy (16098): reduced air pressure: 31.05.2020 19:00:00 - 06.06.2020 19:00:00 (CEST)Treviso/Istrana, Italy (16098): visibility: 31.05.2020 19:00:00 - 06.06.2020 19:00:00 (CEST)
Date & Time tt [°C] td [°C] ff [km/h] ff [kn] dd ppp [hPa] vv [km]
06.06.2020 19:00:00 22,4 20,0 5 3 N 1006,6 14
06.06.2020 18:00:00 23,2 19,6 8 4 N 1006,9 15
06.06.2020 17:00:00 22,0 18,6 5 3 NNE 1007,1 10
06.06.2020 16:00:00 27,0 20,6 11 6 E 1006,5 14
06.06.2020 15:00:00 26,8 21,5 15 8 SSE 1006,8 11
06.06.2020 14:00:00 25,8 20,1 8 4 ESE 1006,8 11
06.06.2020 13:00:00 23,8 19,9 11 6 NE 1007,4 11
06.06.2020 12:00:00 23,2 19,8 8 4 NNE 1007,5 10
06.06.2020 11:00:00 22,0 19,9 9 5 NE 1007,6 11
06.06.2020 10:00:00 22,4 20,1 13 7 NE 1007,7 10
06.06.2020 09:00:00 19,8 18,3 13 7 NE 1007,5 10
06.06.2020 08:00:00 20,0 18,3 11 6 N 1007,0 10
06.06.2020 07:00:00 18,0 16,2 9 5 N 1006,3 10
06.06.2020 06:00:00 18,0 16,3 9 5 NE 1005,7 10
06.06.2020 05:00:00 18,0 16,7 0 0 N 1006,7 10
06.06.2020 04:00:00 18,4 17,6 0 0 N 1006,3 10
06.06.2020 03:00:00 18,4 16,7 9 5 N 1005,7 10
06.06.2020 02:00:00 18,4 17,4 8 4 NNE 1005,7 10
06.06.2020 01:00:00 18,0 17,2 13 7 N 1005,3 10
06.06.2020 00:00:00 20,0 19,4 9 5 N 1004,6 10
05.06.2020 23:00:00 21,0 20,2 5 3 N 1004,2 15
05.06.2020 22:00:00 21,0 19,3 0 0 E 1003,1 25
05.06.2020 21:00:00 22,0 18,8 4 2 ESE 1002,4 15
05.06.2020 20:00:00 23,0 16,1 0 0 N 1001,2 30
05.06.2020 19:00:00 23,0 15,1 4 2 NNW 1000,2 30
05.06.2020 18:00:00 23,0 17,2 5 3 WSW 1000,0 40
05.06.2020 17:00:00 23,0 15,6 4 2 NE 999,6 30
05.06.2020 16:00:00 23,0 14,3 5 3 NE 999,6 30
05.06.2020 15:00:00 23,0 15,8 8 4 NE 999,2 30
05.06.2020 14:00:00 22,4 15,7 13 7 NE 999,2 30
05.06.2020 13:00:00 21,4 15,7 11 6 NE 998,1 30
05.06.2020 12:00:00 21,0 17,4 11 6 ENE 997,9 30
05.06.2020 11:00:00 21,0 17,4 4 2 NNE 997,3 30
05.06.2020 10:00:00 20,0 17,4 8 4 W 996,6 25
05.06.2020 09:00:00 18,4 16,4 5 3 WNW 996,0 25
05.06.2020 08:00:00 17,6 15,8 9 5 NNW 995,8 10
05.06.2020 07:00:00 17,4 15,7 4 2 WSW 995,5 10
05.06.2020 06:00:00 17,0 15,4 5 3 S 994,9 7
05.06.2020 05:00:00 17,4 15,7 0 0 N 994,7 4,0
05.06.2020 04:00:00 17,4 15,7 0 0 N 995,7 5
05.06.2020 03:00:00 17,0 15,4 0 0 N 995,7 4,5
05.06.2020 02:00:00 17,4 15,7 0 0 N 996,7 3,0
05.06.2020 01:00:00 16,4 14,8 0 0 N 996,7 3,0
05.06.2020 00:00:00 16,0 14,7 26 14 E 997,7 2,0
04.06.2020 23:00:00 16,6 15,0 15 8 ENE 998,7 2,5
04.06.2020 22:00:00 16,0 14,4 13 7 E 999,9 2,0
04.06.2020 21:00:00 17,0 15,4 9 5 SSE 1000,4 3,0
04.06.2020 20:00:00 17,0 15,4 8 4 ENE 1000,7 4,0
04.06.2020 19:00:00 17,0 15,4 5 3 SE 1001,0 2,0
04.06.2020 18:00:00 17,6 15,9 9 5 S 1001,7 2,0
04.06.2020 17:00:00 17,6 16,0 5 3 S 1002,5 3,0
04.06.2020 16:00:00 17,4 15,7 11 6 S 1002,8 4,5
04.06.2020 15:00:00 17,0 15,4 16 9 S 1003,5 2,5
04.06.2020 14:00:00 17,4 15,7 5 3 SSW 1003,5 3,0
04.06.2020 13:00:00 18,4 16,7 8 4 S 1003,6 3,0
04.06.2020 12:00:00 17,6 16,8 9 5 SSW 1003,7 2,5
04.06.2020 11:00:00 19,0 17,3 5 3 W 1003,5 6
04.06.2020 10:00:00 18,8 17,1 4 2 S 1003,4 7
04.06.2020 09:00:00 19,0 17,3 4 2 SSE 1003,3 12
04.06.2020 08:00:00 19,8 17,6 8 4 ENE 1003,3 15
04.06.2020 07:00:00 18,2 16,4 0 0 N 1003,5 15
04.06.2020 06:00:00 16,8 15,2 8 4 ENE 1003,3 12
04.06.2020 05:00:00 17,2 15,7 9 5 NNE 1003,8 12
04.06.2020 04:00:00 17,4 15,9 0 0 N 1003,6 15
04.06.2020 03:00:00 17,4 16,1 15 8 NNE 1004,5 15
04.06.2020 02:00:00 17,8 16,5 9 5 NE 1004,7 15
04.06.2020 01:00:00 17,8 16,8 0 0 N 1005,3 15
04.06.2020 00:00:00 18,2 17,7 0 0 N 1004,9 15
03.06.2020 23:00:00 19,2 17,9 0 0 N 1005,4 15
03.06.2020 22:00:00 18,8 18,3 0 0 N 1005,9 8
03.06.2020 21:00:00 20,4 16,4 5 3 NNE 1005,3 10
03.06.2020 20:00:00 24,4 18,8 15 8 ESE 1004,5 10
03.06.2020 19:00:00 25,6 20,0 16 9 E 1004,2 10
03.06.2020 18:00:00 26,8 19,9 5 3 SSW 1004,5 12
03.06.2020 17:00:00 27,4 20,2 9 5 S 1005,2 15
03.06.2020 16:00:00 28,2 19,4 8 4 WSW 1005,9 15
03.06.2020 15:00:00 27,8 19,6 5 3 ENE 1006,6 15
03.06.2020 14:00:00 27,8 20,1 8 4 SW 1007,1 15
03.06.2020 13:00:00 27,4 20,0 8 4 SSE 1007,9 15
03.06.2020 12:00:00 25,2 18,9 9 5 ENE 1008,4 15
03.06.2020 11:00:00 24,6 19,0 8 4 ENE 1008,8 15
03.06.2020 10:00:00 22,2 18,8 11 6 ENE 1009,1 15
03.06.2020 09:00:00 21,2 17,8 13 7 NE 1009,6 15
03.06.2020 08:00:00 20,0 16,8 11 6 N 1009,9 20
03.06.2020 07:00:00 18,0 16,7 11 6 N 1009,9 12
03.06.2020 06:00:00 17,2 16,1 13 7 N 1010,4 15
03.06.2020 05:00:00 17,2 16,5 13 7 NNE 1010,4 25
03.06.2020 04:00:00 17,4 16,8 11 6 NNE 1010,8 25
03.06.2020 03:00:00 18,4 17,7 11 6 N 1011,2 25
03.06.2020 02:00:00 18,4 17,6 13 7 N 1011,7 25
03.06.2020 01:00:00 19,6 18,3 9 5 NNW 1011,6 25
03.06.2020 00:00:00 20,0 18,8 13 7 N 1011,6 20
02.06.2020 23:00:00 20,6 16,2 9 5 NNE 1011,3 25
02.06.2020 22:00:00 20,8 18,0 5 3 N 1011,3 25
02.06.2020 21:00:00 21,8 17,6 0 0 N 1011,2 25
02.06.2020 20:00:00 23,2 17,9 13 7 NNE 1010,4 20
02.06.2020 19:00:00 25,0 18,2 13 7 NNW 1010,9 25
02.06.2020 18:00:00 24,6 16,6 15 8 SSE 1010,1 25
02.06.2020 17:00:00 28,0 15,7 9 5 ESE 1010,8 15
02.06.2020 16:00:00 27,2 14,9 11 6 ESE 1011,6 20
02.06.2020 15:00:00 28,4 13,9 9 5 S 1012,0 20
02.06.2020 14:00:00 27,8 13,4 9 5 SE 1012,5 20
02.06.2020 13:00:00 27,4 15,1 8 4 SE 1013,6 20
02.06.2020 12:00:00 26,6 14,4 8 4 SE 1013,9 20
02.06.2020 11:00:00 24,4 16,4 5 3 E 1014,3 15
02.06.2020 10:00:00 22,6 16,9 5 3 NE 1015,1 18
02.06.2020 09:00:00 22,0 19,4 5 3 ENE 1015,1 18
02.06.2020 08:00:00 19,8 17,4 13 7 NNE 1015,1 20
02.06.2020 07:00:00 17,4 15,9 5 3 NNE 1015,7 18
02.06.2020 06:00:00 16,4 13,9 5 3 NE 1015,8 15
02.06.2020 05:00:00 16,8 13,9 4 2 NNE 1015,8 15
02.06.2020 04:00:00 16,0 13,1 4 2 N 1016,1 20
02.06.2020 03:00:00 15,2 13,7 5 3 NNE 1016,2 25
02.06.2020 02:00:00 16,4 14,2 2 1 N 1016,3 25
02.06.2020 01:00:00 18,0 14,1 2 1 SSW 1016,4 25
02.06.2020 00:00:00 18,2 15,1 4 2 SSW 1016,4 25
01.06.2020 23:00:00 20,0 13,9 4 2 NNW 1016,4 25
01.06.2020 22:00:00 21,4 12,0 2 1 SSW 1016,3 25
01.06.2020 21:00:00 23,2 11,6 4 2 SSE 1015,8 20
01.06.2020 20:00:00 24,4 11,7 5 3 SSE 1015,9 20
01.06.2020 19:00:00 25,4 12,3 9 5 SSE 1015,9 20
01.06.2020 18:00:00 27,0 13,4 11 6 SSW 1015,9 20
01.06.2020 17:00:00 27,2 12,1 11 6 S 1016,3 23
01.06.2020 16:00:00 27,4 13,0 8 4 S 1016,5 23
01.06.2020 15:00:00 28,0 12,4 8 4 SSE 1016,7 25
01.06.2020 14:00:00 26,8 12,8 5 3 SSE 1016,8 25
01.06.2020 13:00:00 26,4 14,2 4 2 W 1016,9 25
01.06.2020 12:00:00 25,6 14,7 8 4 SSE 1016,9 25
01.06.2020 11:00:00 24,6 15,0 5 3 WSW 1017,0 25
01.06.2020 10:00:00 22,8 15,9 5 3 WSW 1017,1 25
01.06.2020 09:00:00 19,8 14,8 2 1 N 1017,4 23
01.06.2020 08:00:00 18,8 15,1 0 0 N 1017,7 20
01.06.2020 07:00:00 16,0 15,7 0 0 N 1017,3 15
01.06.2020 06:00:00 16,0 15,2 4 2 SSW 1017,1 15
01.06.2020 05:00:00 16,0 15,0 5 3 WSW 1017,1 15
01.06.2020 04:00:00 17,0 14,8 0 0 N 1017,1 15
01.06.2020 03:00:00 17,0 15,0 0 0 N 1017,5 15
01.06.2020 02:00:00 17,0 15,0 0 0 N 1017,1 15
01.06.2020 01:00:00 17,0 14,8 0 0 N 1017,1 15
01.06.2020 00:00:00 17,0 14,8 0 0 N 1016,5 15
31.05.2020 23:00:00 17,0 15,0 4 2 NW 1016,7 15
31.05.2020 22:00:00 18,0 14,5 0 0 N 1015,7 15
31.05.2020 21:00:00 20,0 14,1 4 2 ESE 1015,1 15
31.05.2020 20:00:00 21,8 14,0 0 0 N 1014,4 20
31.05.2020 19:00:00 22,0 13,9 0 0 N 1014,4 20

tt = temperature
td = dewpoint
ff = wind speed
dd = wind direction
ppp = reduced air pressure
vv = visibility

Next stations